Total_Precipitation_Accumulation
2.03 1.57 1.02 0.60 0.49 0.45 0.41 0.52 0.63 0.63 0.61 0.66 0.69 0.58 0.56 0.49 0.47 0.50 0.48 0.51 0.62 0.77 0.93 1.06 1.23 1.40 1.51 1.48 1.48 1.59 1.67 1.75 1.86 1.95 1.88 1.80 1.75 1.66 1.58 1.47 1.34 1.21 1.14 1.17
1.71 1.16 0.54 0.39 0.42 0.41 0.40 0.46 0.54 0.56 0.55 0.64 0.69 0.63 0.57 0.55 0.52 0.50 0.46 0.45 0.55 0.68 0.80 0.93 1.11 1.27 1.40 1.47 1.49 1.61 1.68 1.73 1.74 1.80 1.90 1.88 1.96 1.92 1.87 1.81 1.66 1.50 1.38 1.36
1.32 0.78 0.44 0.46 0.51 0.45 0.36 0.38 0.44 0.49 0.54 0.68 0.77 0.77 0.59 0.55 0.53 0.45 0.42 0.44 0.50 0.67 0.75 0.83 0.98 1.07 1.17 1.34 1.53 1.63 1.68 1.70 1.74 1.94 2.30 2.26 2.19 2.12 2.03 1.95 1.88 1.74 1.64 1.58
1.17 0.67 0.50 0.50 0.44 0.40 0.38 0.29 0.37 0.45 0.64 0.80 0.81 1.00 0.65 0.59 0.58 0.48 0.43 0.43 0.50 0.61 0.66 0.72 0.92 0.99 1.01 1.15 1.40 1.67 1.77 1.83 1.93 2.11 2.35 2.41 2.16 1.99 1.93 1.93 1.94 1.92 1.75 1.68
1.11 0.76 0.61 0.56 0.42 0.37 0.39 0.29 0.36 0.44 0.57 0.71 0.60 0.76 0.70 0.56 0.60 0.60 0.56 0.54 0.57 0.61 0.66 0.71 0.89 1.01 0.99 1.04 1.23 1.49 1.73 1.80 1.97 2.10 2.22 2.42 2.21 1.92 1.91 1.95 1.90 1.91 1.85 1.68
0.77 0.65 0.68 0.57 0.39 0.38 0.39 0.39 0.45 0.52 0.64 0.72 0.50 0.59 0.67 0.59 0.61 0.63 0.65 0.69 0.71 0.67 0.69 0.75 0.87 0.91 0.89 0.92 1.04 1.22 1.43 1.53 1.63 1.78 1.96 2.15 2.21 2.08 1.94 1.85 1.80 1.76 1.76 1.73
0.91 0.73 0.61 0.52 0.51 0.44 0.45 0.61 0.82 0.92 0.82 0.61 0.40 0.44 0.60 0.55 0.54 0.59 0.68 0.73 0.72 0.69 0.66 0.72 0.78 0.76 0.73 0.77 0.88 1.01 1.13 1.24 1.35 1.46 1.64 1.83 1.98 2.04 2.01 1.91 1.80 1.68 1.60 1.57
0.89 0.98 0.58 0.47 0.47 0.46 0.39 0.48 0.65 0.68 0.48 0.37 0.27 0.38 0.54 0.54 0.56 0.57 0.65 0.65 0.62 0.61 0.64 0.73 0.82 0.77 0.73 0.74 0.77 0.80 0.90 1.07 1.17 1.22 1.37 1.50 1.58 1.63 1.66 1.71 1.69 1.62 1.53 1.48
0.49 0.62 0.39 0.29 0.25 0.29 0.36 0.32 0.28 0.48 0.34 0.27 0.28 0.35 0.49 0.52 0.52 0.53 0.58 0.56 0.52 0.52 0.60 0.70 0.74 0.70 0.68 0.69 0.68 0.69 0.76 0.89 0.94 0.96 1.06 1.09 1.16 1.21 1.27 1.34 1.36 1.35 1.37 1.42
0.25 0.39 0.32 0.24 0.23 0.21 0.21 0.18 0.26 0.52 0.48 0.32 0.24 0.27 0.48 0.51 0.50 0.48 0.47 0.46 0.45 0.49 0.54 0.56 0.55 0.53 0.55 0.60 0.63 0.63 0.65 0.72 0.73 0.73 0.78 0.80 0.82 0.87 0.96 1.04 1.04 1.02 1.06 1.13
0.15 0.25 0.28 0.23 0.26 0.20 0.15 0.17 0.23 0.34 0.31 0.28 0.20 0.29 0.33 0.39 0.42 0.40 0.38 0.38 0.39 0.43 0.44 0.42 0.40 0.39 0.43 0.46 0.47 0.47 0.50 0.57 0.58 0.53 0.53 0.57 0.60 0.63 0.72 0.84 0.92 0.94 0.93 0.91
0.11 0.18 0.22 0.17 0.10 0.06 0.08 0.11 0.20 0.34 0.25 0.20 0.17 0.24 0.24 0.27 0.29 0.28 0.28 0.30 0.31 0.34 0.34 0.35 0.34 0.34 0.34 0.35 0.36 0.40 0.43 0.46 0.46 0.42 0.41 0.42 0.44 0.46 0.51 0.61 0.70 0.75 0.79 0.82
0.11 0.15 0.23 0.24 0.16 0.10 0.11 0.11 0.14 0.29 0.45 0.29 0.22 0.25 0.24 0.23 0.23 0.22 0.24 0.26 0.26 0.25 0.23 0.23 0.23 0.23 0.24 0.27 0.31 0.34 0.33 0.31 0.31 0.32 0.32 0.33 0.34 0.33 0.35 0.39 0.45 0.49 0.56 0.65
0.16 0.10 0.14 0.17 0.13 0.18 0.19 0.11 0.15 0.48 0.60 0.22 0.10 0.17 0.18 0.18 0.18 0.21 0.24 0.22 0.20 0.18 0.16 0.13 0.12 0.11 0.13 0.18 0.22 0.23 0.21 0.22 0.25 0.26 0.26 0.27 0.27 0.28 0.28 0.28 0.31 0.34 0.35 0.39
0.12 0.11 0.07 0.06 0.09 0.21 0.22 0.14 0.16 0.31 0.22 0.19 0.08 0.09 0.11 0.11 0.13 0.17 0.19 0.15 0.11 0.10 0.08 0.06 0.06 0.07 0.09 0.12 0.15 0.17 0.18 0.21 0.24 0.24 0.21 0.20 0.20 0.22 0.23 0.22 0.21 0.20 0.19 0.20
0.12 0.12 0.08 0.07 0.07 0.12 0.16 0.09 0.08 0.09 0.07 0.07 0.05 0.07 0.06 0.10 0.14 0.17 0.16 0.12 0.09 0.07 0.05 0.04 0.04 0.04 0.05 0.09 0.16 0.21 0.25 0.25 0.23 0.21 0.19 0.18 0.19 0.20 0.20 0.18 0.15 0.14 0.14 0.15
0.07 0.10 0.16 0.09 0.03 0.11 0.14 0.08 0.07 0.05 0.03 0.05 0.07 0.06 0.07 0.15 0.21 0.23 0.16 0.10 0.06 0.04 0.03 0.02 0.02 0.02 0.05 0.12 0.25 0.38 0.45 0.40 0.32 0.28 0.24 0.21 0.21 0.21 0.21 0.21 0.21 0.20 0.19 0.21
0.05 0.10 0.21 0.14 0.08 0.19 0.13 0.06 0.03 0.02 0.03 0.05 0.05 0.05 0.08 0.11 0.16 0.16 0.10 0.05 0.03 0.02 0.02 0.02 0.02 0.03 0.07 0.15 0.28 0.38 0.46 0.49 0.44 0.40 0.38 0.34 0.35 0.37 0.39 0.41 0.41 0.39 0.38 0.38
0.03 0.11 0.24 0.19 0.14 0.08 0.04 0.03 0.03 0.04 0.04 0.04 0.05 0.04 0.04 0.05 0.10 0.10 0.06 0.03 0.02 0.02 0.01 0.01 0.02 0.03 0.08 0.15 0.23 0.33 0.42 0.47 0.52 0.57 0.62 0.61 0.60 0.63 0.67 0.71 0.73 0.70 0.66 0.65
0.03 0.09 0.26 0.23 0.18 0.05 0.02 0.01 0.02 0.03 0.07 0.03 0.03 0.03 0.02 0.03 0.09 0.09 0.07 0.06 0.04 0.03 0.03 0.03 0.04 0.05 0.10 0.18 0.28 0.45 0.57 0.62 0.65 0.71 0.76 0.74 0.72 0.73 0.74 0.75 0.74 0.71 0.65 0.62
0.08 0.15 0.23 0.21 0.18 0.04 0.01 0.01 0.01 0.04 0.06 0.02 0.03 0.04 0.04 0.05 0.06 0.05 0.07 0.09 0.10 0.10 0.11 0.12 0.14 0.18 0.26 0.34 0.48 0.71 0.82 0.78 0.72 0.70 0.67 0.61 0.57 0.52 0.49 0.46 0.44 0.42 0.38 0.35
0.03 0.07 0.08 0.09 0.13 0.05 0.01 0.02 0.03 0.04 0.02 0.02 0.03 0.04 0.06 0.05 0.04 0.04 0.05 0.07 0.12 0.16 0.17 0.19 0.24 0.31 0.37 0.40 0.47 0.57 0.59 0.54 0.49 0.44 0.37 0.31 0.29 0.26 0.24 0.22 0.21 0.19 0.17 0.15
0.02 0.04 0.05 0.05 0.06 0.03 0.02 0.02 0.02 0.02 0.02 0.02 0.04 0.05 0.05 0.04 0.03 0.03 0.05 0.05 0.07 0.09 0.10 0.11 0.12 0.13 0.16 0.17 0.20 0.21 0.19 0.16 0.15 0.13 0.11 0.09 0.09 0.09 0.08 0.08 0.07 0.06 0.05 0.04
0.04 0.03 0.05 0.05 0.03 0.02 0.02 0.02 0.02 0.02 0.03 0.02 0.04 0.04 0.04 0.05 0.04 0.04 0.05 0.05 0.05 0.05 0.04 0.05 0.05 0.04 0.04 0.05 0.05 0.05 0.04 0.04 0.04 0.04 0.04 0.04 0.04 0.04 0.04 0.05 0.05 0.05 0.05 0.05
0.05 0.04 0.06 0.06 0.03 0.02 0.02 0.02 0.02 0.02 0.02 0.02 0.02 0.03 0.03 0.04 0.05 0.06 0.06 0.06 0.06 0.06 0.05 0.05 0.05 0.05 0.05 0.05 0.04 0.04 0.05 0.05 0.04 0.05 0.05 0.06 0.06 0.06 0.06 0.07 0.08 0.09 0.08 0.10
0.03 0.05 0.08 0.08 0.03 0.04 0.03 0.02 0.02 0.03 0.03 0.02 0.02 0.03 0.04 0.04 0.04 0.04 0.04 0.05 0.05 0.06 0.06 0.06 0.06 0.06 0.06 0.07 0.07 0.07 0.07 0.08 0.08 0.08 0.08 0.09 0.10 0.11 0.12 0.12 0.12 0.14 0.15 0.16